Location: Ore Lake
(42.4733°N, 83.8017°W)
Time: 16:24:03
(UTC-04:00)

Daily predictions for brighter satellites

Satellite Brightness Start Highest point End
(mag) Time Altitude Azimuth Time Altitude Azimuth Time Altitude Azimuth
ATLAS CENTAUR R/B 3.6 19:26:56 10° SSW 19:31:26 51° ESE 19:44:40 10° NE
Cosmos 1484 Rocket 2.7 19:40:30 10° SSE 19:44:20 81° ENE 19:48:16 10° N
SL-19 R/B 4.4 19:41:23 10° SSE 19:47:01 71° ENE 19:53:00 10° NNW
Cosmos 1758 4.2 19:43:50 10° SSE 19:47:23 29° E 19:50:59 10° NNE
ALOS 3.8 19:44:22 10° ESE 19:47:26 18° ENE 19:50:31 10° NNE
Helios 1A 4.0 19:47:55 10° SE 19:51:25 26° ENE 19:54:57 10° N
Spot 2 Rocket 4.1 19:47:12 10° SE 19:51:44 35° ENE 19:56:17 10° N
ISS -1.7 19:49:54 10° S 19:52:16 19° SE 19:54:39 10° E
Okean 3 Rocket 4.1 19:52:08 10° NNW 19:56:40 67° W 20:01:10 10° S
Cosmos 1544 4.2 19:53:59 10° SE 19:57:00 23° E 20:00:01 10° NE
Timation 1 Rocket 4.5 19:52:21 10° NNW 19:58:21 83° WSW 20:04:18 10° SSE
SL-8 R/B 4.3 19:55:25 10° SSW 19:59:52 40° SE 20:04:20 10° ENE
METEOR-M 4.4 19:54:54 10° SE 20:00:01 48° ENE 20:05:09 10° N
Meteor 1-21 Rocket 4.5 19:55:36 10° N 20:00:55 44° ENE 20:06:11 10° SSE
Resurs 1-3 4.5 19:57:13 10° SE 20:01:01 30° ENE 20:04:50 10° N
SL-16 R/B 2.6 19:56:55 10° SSW 20:02:35 70° WNW 20:08:18 10° NNE
Cosmos 1743 Rocket 4.4 19:58:47 10° NNE 20:02:43 30° ENE 20:06:35 10° SE
SAR-Lupe-4 3.5 19:59:55 10° SSE 20:03:29 87° ENE 20:07:05 10° NNW
Cosmos 1766 3.5 20:01:07 10° SSW 20:05:04 75° W 20:09:05 10° N
Resurs 01 Rocket 2.0 20:02:23 10° SE 20:06:35 43° ENE 20:10:49 10° N
Cosmos 1378 3.7 20:03:48 10° NNW 20:07:30 63° W 20:11:11 10° S
HJ-1C 3.8 20:07:07 10° SE 20:10:19 41° ENE 20:13:31 10° N
USA 215 3.6 20:08:20 10° ENE 20:14:31 43° SE 20:20:40 10° SSW
FENGYUN 3A 4.3 20:11:22 10° SE 20:16:11 35° ENE 20:21:02 10° N
COSMO-SKYMED 1 4.0 20:16:10 10° N 20:20:17 42° WNW 20:24:22 10° SW
Meteor 2-12 Rocket 4.4 20:15:06 10° S 20:21:09 64° E 20:27:15 10° NNE
Meteor 1-28 Rocket 3.2 20:18:34 10° N 20:22:18 81° W 20:26:00 10° SSW
FREGAT/IRIS 2.8 20:20:26 10° S 20:23:31 76° W 20:26:37 10° NNW
Nadezhda 4 Rocket 4.1 20:17:23 10° N 20:23:34 56° E 20:29:38 10° SSE
Helios 1B rocket 2.5 20:19:39 10° NNE 20:23:42 52° E 20:27:42 10° S
Abrixas 2.5 20:22:37 10° SW 20:25:34 57° SSE 20:26:59 26° E
H-2A R/B 3.6 20:28:07 22° ESE 20:29:41 29° ENE 20:33:04 10° N
GP-B 4.2 20:26:22 10° NNE 20:29:56 23° E 20:30:36 22° E
Cosmos 1805 3.3 20:28:20 10° S 20:32:15 81° W 20:36:14 10° N
Cosmos 1092 Rocket 4.2 20:26:32 10° N 20:32:31 48° ENE 20:38:25 10° SSE
CZ-4B DEB 3.4 20:31:56 28° ESE 20:32:56 35° ENE 20:35:58 10° N
Cosmos 1346 2.8 20:30:25 10° N 20:33:24 77° E 20:36:07 12° SSE
GPS 2-04 Rocket1 3.9 20:33:06 10° SW 20:35:53 22° SSE 20:36:40 20° SSE
ERS-1 Rocket 4.5 20:35:36 17° ENE 20:35:56 18° ENE 20:39:11 10° NNE
Gbstr 26 Del rocket 3.7 20:33:14 10° SSW 20:37:21 39° SE 20:39:48 24° E
TELKOM 3 2.9 20:35:01 10° WNW 20:37:47 70° NNE 20:38:02 61° ENE
Cosmos 1943 Rocket 3.5 20:33:54 10° N 20:38:10 22° NE 20:39:37 20° ENE
Cosmos 1766 Rocket 4.3 20:34:31 10° NNW 20:38:49 54° W 20:43:02 10° S
Cosmos 1953 2.7 20:35:50 10° SSW 20:39:47 65° W 20:43:45 10° N
Meteor 1-29 2.8 20:37:55 10° NNE 20:41:27 71° ESE 20:44:54 10° S
Cosmos 2369 Rocket 2.5 20:36:50 10° NNW 20:42:18 47° ENE 20:45:20 25° ESE
Cosmos 1943 3.5 20:38:46 10° S 20:44:02 43° ESE 20:49:19 10° NE
Cosmos-2242 3.5 20:43:44 10° SSW 20:48:04 63° W 20:52:27 10° N
Cosmos 2058 4.4 20:45:45 10° NNE 20:47:52 20° NE 20:47:52 20° NE
Cosmos 1634 Rocket 4.2 20:43:12 10° SSE 20:49:06 47° E 20:55:00 10° NNE
Cosmos 1603 3.9 20:44:29 10° SSW 20:50:13 76° WNW 20:56:01 10° NNE
Cosmos 2151 3.5 20:48:07 10° N 20:52:02 36° ENE 20:52:06 36° E
Cosmos 1733 3.2 20:51:01 10° S 20:54:48 56° E 20:58:36 10° NNE
OAO 3 Rocket 4.4 20:51:35 10° WSW 20:55:42 29° S 20:57:20 24° SSE
Cosmos 1470 2.6 20:52:52 10° S 20:56:45 74° E 21:00:38 10° NNE
Cosmos 839 Rocket 4.3 20:52:47 10° NNW 21:00:32 64° NE 21:03:47 31° SE
Cosmos 1674 2.8 21:00:05 10° N 21:03:59 76° W 21:06:20 23° S
ASTEX 1 3.2 20:59:07 10° N 21:04:02 83° E 21:08:56 10° S
Cosmos 1500 Rocket 3.8 21:07:01 10° NNW 21:11:27 71° W 21:14:49 17° S
Cosmos 1842 Rocket 3.7 21:08:02 10° SSW 21:12:20 72° W 21:16:43 10° N
Cosmos 1331 Rocket 4.2 21:12:01 10° N 21:17:11 49° ENE 21:17:26 48° ENE
CENTAUR R/B 2.4 21:13:17 10° SSW 21:19:20 82° ESE 21:26:11 10° NE
ATLAS 5 CENTAUR R/B 3.8 21:17:13 10° W 21:21:28 28° NW 21:26:02 10° NNE
Meteor 1-16 Rocket 3.9 21:22:42 45° SSE 21:24:11 66° E 21:29:29 10° NNE
ERBS 4.3 21:21:19 10° NNW 21:23:13 23° N 21:23:13 23° N
ALOS 3.0 21:20:32 14° S 21:24:28 52° W 21:29:03 10° NNW
ISS -1.7 21:25:18 10° WSW 21:27:25 34° W 21:27:25 34° W
Meteor 1-11 4.1 21:25:50 10° N 21:31:40 75° E 21:32:39 60° SE
SL-24 R/B - RUBIN 2 4.4 21:26:06 10° NNW 21:32:48 68° NE 21:33:49 59° ESE
Cosmos 1627 Rocket 4.4 21:28:42 10° N 21:34:57 89° W 21:37:44 36° S
Envisat 3.6 21:42:35 45° NNE 21:42:35 45° NNE 21:46:21 10° N
SL-8 R/B 4.0 21:37:34 10° WSW 21:42:18 61° NNW 21:42:21 61° NNW
Resurs 01 Rocket 4.3 21:40:12 10° SW 21:43:16 18° W 21:46:20 10° NW
USA 215 3.7 21:53:07 21° NE 21:57:39 60° NNW 22:04:01 10° WSW
Cosmos 2279 Rocket 4.1 22:09:41 63° SW 22:10:29 70° W 22:16:42 10° N
ERS-1 Rocket 3.9 22:15:36 44° NW 22:15:36 44° NW 22:19:13 10° NNW
Cosmos 1943 Rocket 2.9 22:16:51 10° NNW 22:21:10 50° WNW 22:21:10 50° WNW
Cosmos 2369 Rocket 3.9 22:21:26 10° NW 22:26:00 26° WSW 22:27:10 24° WSW
CZ-3A R/B 4.3 21:54:34 10° SSW 22:27:26 67° SE 22:27:53 66° ESE
CENTAUR R/B 4.4 23:05:33 10° W 23:10:52 27° NNW 23:16:45 10° NNE
